Regional Weather Roundup
Issued by NWS Goodland, KS

Home | Current Version | Previous Version | Text Only | Print | Product List | Glossary Off
Versions: 1 2 3 4 5 6 7 8 9 10 11 12 13 14 15 16 17 18 19 20 21 22 23 24 25 26 27 28 29 30 31 32 33 34 35 36 37 38 39 40 41 42 43 44 45 46 47 48 49 50

000
ASUS43 KGLD 050859
RWRGLD

GOODLAND FORECAST AREA HOURLY WEATHER ROUNDUP
NATIONAL WEATHER SERVICE GOODLAND KS
300 AM MDT WED AUG 05 2015

...OFFICIAL OBSERVATIONS...

CITY           SKY/WX    TMP DP  RH WIND       PRES   REMARKS
GOODLAND KS    FOG       57  57 100 N5        30.04F VSB 1
HILL CITY KS   CLOUDY    68  65  90 NE8       29.98S
IMPERIAL NEB   CLEAR     60  58  92 NW3       30.04S
MCCOOK NEB     CLEAR     59  58  96 CALM      30.01R FOG
AKRON CO       CLEAR     61  55  81 W7        30.11S
BURLINGTON CO  CLEAR     62  59  90 W8        30.07F
LIMON CO       CLEAR     54  53  97 VRB3      30.17F
$$

...UNOFFICIAL OBSERVATIONS...

CITY           SKY/WX    TMP DP  RH WIND       PRES   REMARKS
SHARON SPRINGS   N/A     64  62  92 CALM        N/A
KIT CARSON CO    N/A     62  58  86 MISG        N/A
YUMA CO          N/A     58  55  90 CALM        N/A
$$



USA.gov is the U.S. government's official web portal to all federal, state and local government web resources and services.